Theta_e
299 297 296 298 298 296 297 299 299 297 298 298 298 297 297 297 293 293 292 292 293 293 293 293 293 292 292 291 291 290 288 288 287 286 286 287 288 289 290 291 291 292 293 294
295 296 298 298 299 300 299 294 294 296 297 298 296 297 296 295 294 295 295 293 292 293 291 291 292 292 291 291 290 289 288 287 286 286 286 286 287 288 289 290 291 292 293 295
296 301 299 299 300 299 299 295 293 298 298 295 294 294 294 295 296 296 294 293 292 292 291 290 291 291 290 290 289 289 288 286 285 285 285 286 287 288 290 290 291 291 293 294
296 300 300 300 300 298 295 297 299 298 291 291 294 293 295 296 295 296 295 291 291 289 289 289 290 290 290 289 288 288 287 286 285 285 285 286 288 288 288 289 290 291 292 293
297 301 300 299 300 297 297 297 298 294 285 291 289 290 294 295 297 295 295 292 290 289 288 289 289 290 289 288 287 287 286 285 284 284 284 285 285 287 288 288 289 291 292 293
294 297 298 298 297 297 294 291 289 287 282 287 285 288 294 294 294 296 295 293 291 289 288 288 289 289 288 287 286 286 286 285 284 283 283 284 285 287 287 288 289 290 291 292
293 297 296 296 298 295 292 285 287 289 286 291 278 290 295 293 292 293 293 291 291 288 287 287 287 287 287 286 285 285 285 284 283 282 282 283 284 285 286 287 289 290 291 292
289 294 292 296 296 291 294 287 288 286 288 287 280 290 294 291 291 291 290 289 289 288 287 287 286 286 286 285 284 284 284 283 283 282 282 282 282 285 286 286 288 289 290 291
290 291 294 296 297 293 290 291 287 282 276 283 285 287 290 291 286 290 290 290 289 288 287 286 285 286 285 283 283 283 283 283 282 282 281 281 282 284 285 286 287 289 290 292
291 291 288 293 295 292 289 290 290 284 286 285 285 279 293 288 284 286 287 285 286 287 286 285 283 284 283 282 281 283 283 282 282 281 281 282 282 283 285 286 287 289 290 293
286 286 289 294 292 292 294 288 286 285 288 287 285 291 286 286 283 283 284 284 283 283 283 282 281 282 281 281 280 282 282 282 281 281 281 281 282 284 285 286 288 289 291 292
293 290 288 291 292 292 290 287 291 290 286 284 288 294 290 283 276 272 282 284 283 281 282 279 278 280 279 279 279 281 281 281 281 281 281 281 282 284 285 287 289 290 291 292
295 288 288 296 293 291 292 292 291 288 291 288 290 296 284 274 277 280 280 283 283 280 280 274 277 276 277 278 278 280 281 281 281 281 281 282 283 285 286 287 289 290 292 291
296 294 292 299 295 286 292 293 294 293 290 295 295 297 298 298 296 292 286 280 279 279 276 271 274 272 276 276 278 280 281 281 281 282 282 283 284 285 286 287 289 290 291 291
296 292 292 292 290 286 291 290 293 294 293 294 298 294 297 296 296 294 282 281 282 279 277 272 270 269 275 276 278 281 282 282 282 282 283 284 285 286 286 287 288 288 288 289
293 287 285 284 292 291 290 292 293 293 293 294 294 294 295 294 292 286 284 279 280 279 277 272 270 269 274 275 277 280 281 282 282 283 283 284 285 285 286 286 287 287 287 287
293 288 286 289 285 284 291 291 293 287 286 289 289 293 293 291 286 281 282 276 280 280 276 273 272 271 276 276 278 281 281 282 283 283 283 284 284 285 285 286 286 286 286 286
292 290 291 287 280 291 294 290 289 289 289 286 287 289 288 282 279 281 284 281 281 276 273 273 270 276 278 277 280 282 282 283 283 283 283 283 284 284 284 285 285 285 285 285
293 295 293 290 278 289 294 290 289 290 292 290 289 289 287 282 285 288 281 277 277 274 274 277 279 279 278 278 280 282 282 283 283 283 283 283 283 283 283 283 283 284 284 284
294 296 297 279 285 290 294 292 290 290 292 291 288 289 289 288 288 287 286 285 283 281 281 280 280 279 278 278 280 281 281 282 282 282 283 284 283 283 283 283 283 283 283 283
287 289 295 281 287 287 289 290 289 291 297 290 288 289 288 289 289 286 287 286 284 284 282 281 280 279 279 278 279 280 280 281 281 282 283 284 284 283 283 284 284 284 283 283
288 288 289 288 286 291 287 288 292 294 292 291 289 290 289 288 288 287 285 285 283 281 281 281 280 279 279 278 278 279 280 281 281 282 283 283 283 283 283 284 283 284 283 282
291 290 288 290 291 290 287 291 290 289 290 290 290 289 288 288 287 287 286 284 283 281 281 281 281 280 279 278 278 278 280 281 281 282 282 281 282 282 282 282 282 282 282 281
283 284 287 289 294 288 288 288 288 288 288 290 288 288 287 287 286 285 285 282 280 280 279 280 280 279 279 279 278 278 279 281 280 281 281 281 281 280 280 280 280 279 279 279
288 287 286 288 292 287 291 288 290 291 288 287 287 286 288 286 287 285 286 283 280 280 279 280 279 279 280 279 279 278 279 280 279 280 280 279 279 279 279 279 279 279 279 279
285 288 292 297 297 294 296 291 287 288 289 288 287 288 285 286 287 285 284 284 281 279 280 277 279 279 281 279 279 278 278 280 279 280 279 279 279 280 279 280 280 280 280 280
Wind_Speed
4 5 1 2 3 4 5 1 3 4 3 5 6 14 23 17 9 9 9 8 6 7 4 4 9 13 18 22 26 27 29 32 32 28 25 23 23 25 24 24 24 23 24 25
6 1 2 5 4 4 4 3 5 6 2 3 7 21 21 12 6 6 5 5 6 4 3 6 10 14 18 22 24 27 30 31 30 27 26 24 26 25 26 27 25 24 24 26
4 1 3 2 2 3 1 4 2 4 8 2 7 9 5 3 3 3 2 3 4 5 5 6 10 15 17 20 24 27 29 30 29 29 26 24 24 24 21 21 23 24 24 25
1 3 2 3 0 4 1 3 0 2 4 3 6 5 6 4 8 5 5 6 7 7 5 6 10 15 18 21 22 25 26 28 27 26 25 24 23 23 24 23 25 27 26 27
4 2 1 1 1 3 1 3 2 3 4 4 4 2 8 4 6 7 6 8 9 8 7 8 10 17 19 22 22 24 25 28 27 25 25 26 26 24 24 24 27 26 27 27
3 2 0 1 3 2 4 4 5 4 3 3 3 3 6 4 4 3 2 5 8 8 8 8 15 16 20 22 22 25 27 28 25 24 25 26 26 25 26 25 25 26 24 26
4 1 3 0 2 3 5 6 4 5 4 5 2 1 12 7 4 5 9 10 8 8 8 8 8 14 19 21 24 26 22 26 24 23 23 22 26 26 27 27 23 23 24 25
3 6 1 4 2 4 3 5 5 5 2 5 3 6 6 6 6 7 8 9 8 9 8 8 9 15 19 22 24 24 22 25 25 25 25 25 24 25 25 25 23 24 24 28
3 4 1 4 2 3 2 1 3 6 2 3 2 8 11 4 6 5 7 6 10 11 9 8 10 17 20 23 24 26 26 25 25 25 26 24 23 23 24 24 23 23 26 25
3 3 1 2 2 5 4 3 4 3 2 5 5 6 8 7 6 6 6 7 9 9 9 7 8 15 21 22 24 26 27 25 25 25 22 22 23 24 24 22 23 24 25 23
4 3 5 2 4 7 2 1 4 4 3 4 3 6 8 11 8 7 8 8 9 11 9 8 9 19 20 22 23 25 24 23 23 22 22 23 24 23 22 20 22 23 21 22
3 3 3 8 1 3 4 6 4 4 5 2 2 10 3 8 6 5 10 10 10 9 9 6 10 17 18 21 23 24 23 23 22 24 23 23 24 22 22 20 20 20 20 16
5 1 3 6 3 3 3 4 3 3 2 7 4 10 3 3 5 8 10 11 11 8 11 4 7 9 14 19 21 23 24 23 25 24 23 23 22 22 21 19 17 14 15 8
5 3 6 6 5 3 3 4 6 5 3 6 16 30 22 27 19 16 10 9 9 9 9 5 7 7 13 17 18 22 25 24 24 25 23 21 20 19 17 15 12 7 6 5
3 5 2 5 7 5 10 8 15 13 11 10 32 14 29 21 20 17 7 9 10 11 8 6 5 6 13 17 18 21 24 23 23 22 22 22 18 15 13 11 9 8 7 8
4 3 2 5 7 4 8 16 18 17 17 18 25 28 32 27 16 11 12 8 11 10 7 8 6 7 10 14 15 19 22 22 21 21 21 20 18 16 14 12 12 12 13 13
5 5 2 5 4 7 9 10 7 4 5 6 8 18 14 13 8 7 11 7 12 10 7 8 6 7 10 12 12 15 20 19 18 19 20 20 17 16 16 15 15 15 15 15
6 5 2 4 4 3 7 4 5 10 8 14 12 15 13 8 7 12 13 14 11 7 6 8 6 7 6 9 9 11 14 15 17 19 19 19 18 17 17 17 18 19 18 19
5 4 2 2 3 9 7 3 6 6 8 9 15 15 8 3 4 9 4 5 6 5 5 8 4 5 6 7 6 8 11 13 16 17 17 17 17 18 19 21 20 21 23 23
3 4 4 3 3 7 6 3 4 3 5 4 9 6 2 2 2 5 3 3 5 10 8 8 5 5 5 4 4 5 8 10 13 15 14 14 15 17 18 18 20 21 23 24
3 2 11 3 5 9 13 4 5 4 7 7 7 7 7 6 7 3 3 3 4 10 12 9 7 6 5 3 3 4 4 6 9 10 10 12 13 15 15 16 18 20 23 25
10 10 5 4 4 11 9 5 9 6 2 2 5 5 6 9 8 8 8 7 7 8 11 12 10 9 6 4 3 5 4 4 5 6 6 8 10 11 12 13 14 16 19 21
3 8 7 13 10 4 10 6 15 1 2 6 4 7 7 7 8 9 8 9 9 12 17 16 15 10 9 7 5 7 5 3 3 3 6 7 9 10 10 11 13 15 16 18
4 4 3 1 12 16 11 10 10 8 12 16 10 9 7 11 10 9 8 7 7 15 18 20 17 14 14 11 8 8 5 3 2 2 5 6 9 12 12 13 14 15 15 16
6 10 7 10 12 5 14 10 16 15 10 11 11 10 13 9 13 11 10 9 8 16 21 23 23 21 18 12 11 9 7 6 4 4 6 10 13 15 17 18 17 18 17 16
6 9 8 13 13 6 13 6 6 9 12 12 12 12 11 11 15 10 11 12 12 15 22 23 26 23 20 16 13 12 11 10 8 8 9 9 8 11 14 15 16 14 13 13
Wind_Direction
9 64 98 130 85 105 107 114 268 261 317 320 263 276 279 291 276 262 256 255 223 199 196 302 329 334 337 339 338 335 330 332 327 317 314 311 303 300 294 288 290 290 287 295
18 121 173 120 93 90 78 82 285 294 288 322 306 288 287 283 248 225 249 242 215 169 293 293 322 334 337 333 337 334 334 328 319 311 305 297 293 289 288 285 286 285 286 292
144 118 131 102 85 79 185 168 243 262 327 285 320 292 318 278 278 271 226 202 188 214 276 300 309 321 325 328 332 333 326 321 314 309 305 298 293 292 292 292 290 286 284 284
173 324 112 59 242 122 294 179 296 348 43 277 38 282 302 313 304 278 263 225 227 236 260 264 283 306 317 321 322 324 322 320 313 310 300 293 286 291 288 288 288 286 283 282
262 145 136 107 245 139 175 35 46 89 100 24 342 56 272 325 298 281 273 242 237 238 253 280 292 303 308 309 321 319 318 319 317 308 294 288 286 282 287 288 283 281 283 279
216 304 294 222 62 55 107 69 46 65 95 12 247 127 276 256 218 291 272 282 257 249 267 266 289 303 305 317 319 322 322 317 309 303 294 288 282 288 288 283 282 282 283 287
337 339 338 351 87 35 67 51 332 348 5 231 315 320 246 266 249 237 283 292 278 260 274 292 307 303 306 317 322 324 310 305 304 298 295 290 287 285 283 280 281 285 288 291
121 325 58 347 98 171 62 136 152 248 278 276 356 239 253 233 280 271 271 271 288 279 271 277 284 295 308 317 317 316 312 310 310 309 306 298 295 284 283 281 281 288 288 292
122 288 350 29 68 83 237 69 161 99 92 24 256 288 290 274 294 269 275 282 277 277 270 274 299 311 315 315 315 320 320 313 311 310 306 301 297 290 285 285 288 284 291 292
194 351 264 249 99 32 137 145 48 8 336 303 286 278 238 291 280 301 306 285 291 293 293 289 297 312 312 316 319 325 325 312 312 311 308 303 298 294 292 290 291 290 298 293
126 100 287 58 197 178 123 3 43 120 141 194 304 258 217 232 220 263 285 281 281 290 287 286 307 307 312 320 329 328 320 316 315 313 312 307 303 302 298 294 295 298 297 297
186 141 240 224 108 133 165 183 161 133 254 212 193 269 228 237 241 224 274 277 280 269 280 288 297 303 317 328 330 330 323 320 320 321 315 310 311 307 307 304 306 303 299 301
180 303 350 335 24 2 218 200 173 115 89 195 181 271 286 276 277 239 258 283 284 283 299 308 298 306 312 325 330 333 334 325 333 328 324 324 322 319 319 314 312 304 301 308
159 182 191 218 212 142 207 203 208 167 159 259 233 269 270 283 295 298 290 258 276 291 293 295 292 292 316 329 330 340 341 344 342 339 339 332 336 333 329 326 326 326 323 330
165 223 247 256 247 205 239 228 238 215 218 221 272 254 276 284 289 295 278 296 309 303 306 291 276 294 322 330 336 348 348 348 349 350 350 345 350 349 350 358 7 25 41 40
185 253 121 283 274 286 271 245 242 236 245 253 261 276 267 276 294 288 280 282 286 284 280 278 273 291 312 321 328 345 348 348 353 359 0 360 5 12 17 24 37 49 52 52
167 153 112 265 339 327 296 247 189 185 214 178 208 242 280 277 270 261 283 247 268 269 267 270 264 272 302 310 325 341 345 352 1 9 11 12 19 28 36 43 49 53 57 62
161 144 174 266 2 302 240 214 170 199 235 214 259 271 270 244 270 271 260 251 270 244 250 253 252 272 322 318 333 341 352 3 10 15 19 22 28 35 43 51 51 48 54 52
179 148 179 235 201 300 289 168 156 174 277 206 225 256 270 227 291 293 232 199 237 238 221 233 239 280 311 318 333 342 354 10 20 17 20 27 34 40 46 48 51 57 61 57
196 220 177 107 196 235 234 155 155 166 289 185 191 261 290 140 347 264 284 218 246 229 219 219 226 260 287 308 318 325 349 8 18 14 23 35 44 49 53 60 59 65 62 59
148 196 213 194 248 281 249 147 142 93 235 184 181 216 163 191 217 243 293 254 246 233 215 212 211 243 272 294 289 281 318 358 359 14 32 44 50 55 61 67 70 73 71 70
166 167 190 159 208 280 170 81 177 216 247 208 198 234 212 229 257 252 246 243 220 233 218 214 212 234 252 255 248 261 274 330 359 21 35 48 58 61 64 71 71 75 78 72
234 191 183 189 208 233 204 211 220 162 247 252 230 247 243 254 245 250 248 229 222 222 225 219 218 224 235 239 233 241 248 288 10 22 45 52 62 67 69 67 68 70 71 71
254 158 214 94 224 229 240 248 256 246 245 265 252 251 246 251 258 255 248 239 224 221 222 216 213 221 239 236 227 232 223 184 56 75 81 74 74 74 73 78 76 74 75 78
176 149 183 255 255 332 271 236 250 259 248 252 255 241 250 240 255 240 252 242 224 221 224 213 213 222 235 226 228 214 211 192 189 153 114 105 100 92 86 77 74 76 69 72
179 184 194 249 244 198 266 225 220 228 244 238 239 263 246 226 248 240 243 244 216 212 220 212 216 223 227 224 221 212 198 196 190 173 150 137 124 114 109 105 97 80 80 77